Location: Observatorio del Centro Ecologico de Sonora
(29.0667°N, 110.9333°W)
Time: 02:45:48
(UTC-07:00)

ISS - Visible Passes

Search period start: 01 August 2015 00:00
Search period end: 11 August 2015 00:00
Orbit: 401 x 403 km, 51.6° (Epoch: 31 July)

Date Brightness Start Highest point End Pass type
(mag) Time Alt. Az. Time Alt. Az. Time Alt. Az.
01 Aug -2.0 04:03:34 10° NNW 04:06:40 40° NE 04:09:45 10° ESE visible
01 Aug -0.4 20:39:01 10° W 20:41:27 19° NW 20:43:50 10° N visible
02 Aug -0.2 03:15:19 14° ENE 03:15:19 14° ENE 03:16:02 10° E visible
02 Aug -2.3 04:48:16 16° W 04:49:58 24° SW 04:52:39 10° S visible
02 Aug -1.7 19:45:15 10° WSW 19:48:19 38° NW 19:51:23 10° NNE visible
04 Aug -0.2 19:36:44 10° WNW 19:38:52 16° NW 19:40:56 10° N visible
